Flag for U.S.A. Weather past 2 weeks in Bryan – College Station, Texas, U.S.A.

Now
57 °F

Sunny.


Feels Like: 57 °F
Forecast: 48 / 76 °F
Wind: No wind

Location: Easterwood Field

Current Time: Jan 28, 2015 at 9:15:31 AM

Latest Report: Jan 28, 2015 at 8:53 AM


Visibility: 10 mi

Pressure: 30.17 "Hg

Humidity: 67%

Dew point: 46 °F

Location of Bryan – College StationLocation

Historic Weather in Bryan – College Station — Graph

°F

Bryan – College Station temperature yesterday

Maximum temperature yesterday: 79 °F (at 2:53 PM)
Minimum temperature yesterday: 45 °F (at 4:53 AM)
Average temperature yesterday: 60 °F

Past Weeks' High & Low Weather Summary

 TemperatureHumidityPressure
High79 °F (Jan 27, 2:53 PM)100% (Jan 20, 4:53 AM)30.45 "Hg (Jan 20, 4:53 AM)
Low31 °F (Jan 16, 5:53 AM)20% (Jan 18, 1:53 PM)29.88 "Hg (Jan 20, 4:53 PM)
Average50 °F70%30.16 "Hg
* Reported Jan 13 7:53 AM — Jan 28 7:53 AM, Bryan – College Station, Weather by CustomWeather, © 2014

Note: Actual official high and low records may vary slightly from our data, if they occured in-between our weather recording intervals... More about our weather records

Advertising

Bryan – College Station weather history for previous 24 hours

 ConditionsComfort  
Time TempWeatherWind HumidityBarometerVisibility
7:53 AM
Jan 28
49 °FSunny.No wind77%30.16 "Hg10 mi
6:53 AM48 °FClear.3 mph80%30.14 "Hg10 mi
5:53 AM48 °FClear.3 mph80%30.13 "Hg10 mi
4:53 AM48 °FClear.5 mph80%30.13 "Hg10 mi
3:53 AM46 °FClear.No wind83%30.12 "Hg10 mi
2:53 AM49 °FClear.No wind80%30.12 "Hg10 mi
1:53 AM50 °FClear.No wind77%30.12 "Hg10 mi
12:53 AM52 °FClear.3 mph72%30.13 "Hg10 mi
11:53 PM
Jan 27
55 °FClear.No wind69%30.13 "Hg10 mi
10:53 PM54 °FClear.No wind74%30.14 "Hg10 mi
9:53 PM56 °FClear.No wind70%30.14 "Hg10 mi
8:53 PM59 °FClear.No wind62%30.13 "Hg10 mi
7:53 PM60 °FClear.No wind62%30.13 "Hg10 mi
6:53 PM63 °FClear.No wind56%30.12 "Hg10 mi
5:53 PM72 °FSunny.3 mph41%30.11 "Hg10 mi
4:53 PM78 °FSunny.No wind25%30.10 "Hg10 mi
3:53 PM78 °FSunny.No wind25%30.10 "Hg10 mi
2:53 PM79 °FSunny.3 mph25%30.10 "Hg10 mi
1:53 PM77 °FSunny.No wind28%30.12 "Hg10 mi
12:53 PM73 °FSunny.No wind33%30.14 "Hg10 mi
11:53 AM71 °FSunny.6 mph35%30.17 "Hg10 mi
10:53 AM64 °FSunny.5 mph43%30.18 "Hg10 mi
9:53 AM60 °FSunny.7 mph49%30.17 "Hg10 mi
Weather by CustomWeather, © 2014

See weather overviewHow to use our weather pages